DW2213 Weather Reports


time (UTC)temp
C
wind
direction
speed
KPH
gust
KPH
rain 1hr
cm
rain 24hr
cm
rain mn
cm
humidity
%
barometer
mb
20260904133305 35 137 3.2 9.7 0.00 0.00 0.00 52 1013.5
20260904132805 35 144 3.2 9.7 0.00 0.00 0.00 53 1013.6
20260904132306 35 141 3.2 9.7 0.00 0.00 0.00 53 1013.6
20260904131805 35 142 3.2 8.0 0.00 0.00 0.00 55 1013.6
20260904130805 35 120 0.0 8.0 0.00 0.00 0.00 58 1013.8
20260904130305 35 130 1.6 4.8 0.00 0.00 0.00 58 1013.8
20260904125805 34 101 1.6 4.8 0.00 0.00 0.00 59 1013.9
20260904125305 34 114 1.6 4.8 0.00 0.00 0.00 59 1013.9
20260904124804 34 133 1.6 4.8 0.00 0.00 0.00 59 1014.0
20260904124305 34 130 0.0 1.6 0.00 0.00 0.00 60 1014.0
20260904123805 34 132 0.0 3.2 0.00 0.00 0.00 60 1014.1
20260904123305 33 131 0.0 4.8 0.00 0.00 0.00 62 1014.1
20260904122805 33 116 1.6 8.0 0.00 0.00 0.00 62 1014.1
20260904122306 33 136 1.6 4.8 0.00 0.00 0.00 63 1014.2
20260904121305 33 119 1.6 9.7 0.00 0.00 0.00 65 1014.3
20260904120804 33 129 1.6 4.8 0.00 0.00 0.00 65 1014.3
20260904115805 33 95 0.0 9.7 0.00 0.00 0.00 65 1014.5
20260904115306 33 130 0.0 8.0 0.00 0.00 0.00 65 1014.5
20260904114805 32 135 1.6 9.7 0.00 0.00 0.00 67 1014.5
20260904114305 32 116 1.6 4.8 0.00 0.00 0.00 67 1014.6
20260904113804 32 136 1.6 8.0 0.00 0.00 0.00 66 1014.6
20260904113304 32 104 0.0 9.7 0.00 0.00 0.00 67 1014.6
20260904112804 32 134 1.6 9.7 0.00 0.00 0.00 67 1014.6
20260904112306 32 131 1.6 8.0 0.00 0.00 0.00 67 1014.8
20260904111805 32 128 1.6 8.0 0.00 0.00 0.00 67 1014.9
20260904111305 32 131 1.6 9.7 0.00 0.00 0.00 67 1014.9
20260904110805 32 154 0.0 8.0 0.00 0.00 0.00 68 1014.9
20260904110305 32 123 1.6 9.7 0.00 0.00 0.00 68 1015.0
20260904105805 32 131 1.6 8.0 0.00 0.00 0.00 69 1015.1
20260904105306 31 136 1.6 8.0 0.00 0.00 0.00 69 1015.1
20260904104804 31 134 1.6 9.7 0.00 0.00 0.00 69 1015.2
20260904102805 32 146 0.0 1.6 0.00 0.00 0.00 68 1015.4
20260904101805 31 146 0.0 0.0 0.00 0.00 0.00 69 1015.5
20260904101304 31 127 0.0 0.0 0.00 0.00 0.00 68 1015.5
20260904100804 31 140 0.0 0.0 0.00 0.00 0.00 68 1015.4
20260904100306 31 127 0.0 0.0 0.00 0.00 0.00 68 1015.5
20260904094805 31 144 0.0 1.6 0.00 0.00 0.00 68 1015.6
20260904093805 30 134 0.0 1.6 0.00 0.00 0.00 68 1015.6
20260904093304 30 133 0.0 0.0 0.00 0.00 0.00 70 1015.6
20260904092805 30 133 0.0 0.0 0.00 0.00 0.00 69 1015.6
20260904092306 30 132 0.0 1.6 0.00 0.00 0.00 70 1015.6
20260904091805 30 123 0.0 0.0 0.00 0.00 0.00 69 1015.5
20260904091305 30 123 0.0 0.0 0.00 0.00 0.00 69 1015.6
20260904090805 30 123 0.0 0.0 0.00 0.00 0.00 69 1015.6
20260904090304 30 123 0.0 0.0 0.00 0.00 0.00 70 1015.6
20260904085804 30 122 0.0 0.0 0.00 0.00 0.00 73 1015.6
20260904084804 29 122 0.0 0.0 0.00 0.00 0.00 75 1015.5
20260904084305 29 122 0.0 0.0 0.00 0.00 0.00 75 1015.5
20260904083804 29 122 0.0 0.0 0.00 0.00 0.00 76 1015.4
20260904083305 28 121 0.0 0.0 0.00 0.00 0.00 76 1015.5
20260904082804 28 121 0.0 0.0 0.00 0.00 0.00 77 1015.5
20260904081805 28 121 0.0 0.0 0.00 0.00 0.00 78 1015.4
20260904080804 27 121 0.0 0.0 0.00 0.00 0.00 80 1015.3
20260904080304 27 121 0.0 0.0 0.00 0.00 0.00 81 1015.3
20260904075805 27 121 0.0 0.0 0.00 0.00 0.00 81 1015.3
20260904075306 27 121 0.0 0.0 0.00 0.00 0.00 81 1015.3
20260904074804 27 121 0.0 0.0 0.00 0.00 0.00 82 1015.3
20260904074305 27 121 0.0 0.0 0.00 0.00 0.00 83 1015.3
20260904073804 26 121 0.0 0.0 0.00 0.00 0.00 84 1015.3
20260904073304 26 121 0.0 0.0 0.00 0.00 0.00 84 1015.4
20260904072805 26 121 0.0 0.0 0.00 0.00 0.00 85 1015.4
20260904072306 26 121 0.0 0.0 0.00 0.00 0.00 85 1015.4
20260904071804 26 122 0.0 0.0 0.00 0.00 0.00 86 1015.5
20260904071304 25 122 0.0 0.0 0.00 0.00 0.00 87 1015.6
20260904070804 25 122 0.0 0.0 0.00 0.00 0.00 88 1015.6
20260904070305 25 122 0.0 0.0 0.00 0.00 0.00 89 1015.6
20260904065804 25 113 0.0 0.0 0.00 0.00 0.00 89 1015.6
20260904065306 25 110 0.0 0.0 0.00 0.00 0.00 89 1015.6
20260904064305 24 110 0.0 0.0 0.00 0.00 0.00 90 1015.5
20260904063805 24 110 0.0 0.0 0.00 0.00 0.00 90 1015.5
20260904063304 24 110 0.0 0.0 0.00 0.00 0.00 90 1015.5
20260904062804 24 110 0.0 0.0 0.00 0.00 0.00 90 1015.5
20260904062306 24 110 0.0 0.0 0.00 0.00 0.00 90 1015.5
20260904061805 24 110 0.0 0.0 0.00 0.00 0.00 90 1015.5
20260904061305 24 110 0.0 0.0 0.00 0.00 0.00 90 1015.5
20260904060805 24 110 0.0 0.0 0.00 0.00 0.00 90 1015.5
20260904060304 24 110 0.0 0.0 0.00 0.00 0.00 90 1015.4
20260904053805 24 110 0.0 0.0 0.00 0.00 0.00 90 1015.3
20260904053305 24 110 0.0 0.0 0.00 0.00 0.00 90 1015.3
20260904052307 24 110 0.0 0.0 0.00 0.00 0.00 90 1015.3
20260904051804 24 110 0.0 0.0 0.00 0.00 0.00 91 1015.2
20260904051305 24 110 0.0 0.0 0.00 0.00 0.00 91 1015.3
20260904050804 24 110 0.0 0.0 0.00 0.00 0.00 91 1015.3
20260904045804 24 110 0.0 0.0 0.00 0.00 0.00 91 1015.3
20260904045306 24 110 0.0 0.0 0.00 0.00 0.00 91 1015.4
20260904044804 24 110 0.0 0.0 0.00 0.00 0.00 91 1015.4
20260904044305 24 110 0.0 0.0 0.00 0.00 0.00 91 1015.4
20260904043804 24 110 0.0 0.0 0.00 0.00 0.00 91 1015.4
20260904043304 24 110 0.0 0.0 0.00 0.00 0.00 91 1015.4
20260904042804 24 110 0.0 0.0 0.00 0.00 0.00 91 1015.4
20260904041804 24 110 0.0 0.0 0.00 0.00 0.00 91 1015.4
20260904041305 24 110 0.0 0.0 0.00 0.00 0.00 90 1015.4
20260904040304 24 110 0.0 0.0 0.00 0.00 0.00 90 1015.4
20260904035805 24 110 0.0 0.0 0.00 0.00 0.00 90 1015.4
20260904035306 24 110 0.0 0.0 0.00 0.00 0.00 90 1015.4
20260904034805 24 110 0.0 0.0 0.00 0.00 0.00 90 1015.4
20260904034304 24 110 0.0 0.0 0.00 0.00 0.00 90 1015.5
20260904033804 25 110 0.0 0.0 0.00 0.00 0.00 90 1015.5
20260904032804 25 110 0.0 0.0 0.00 0.00 0.00 90 1015.5
20260904032306 25 110 0.0 0.0 0.00 0.00 0.00 89 1015.5
20260904031804 25 110 0.0 0.0 0.00 0.00 0.00 89 1015.5
20260904030804 25 110 0.0 0.0 0.00 0.00 0.00 89 1015.5
20260904030304 25 110 0.0 0.0 0.00 0.00 0.00 89 1015.6
20260904025804 25 109 0.0 0.0 0.00 0.00 0.00 89 1015.7
20260904025306 25 109 0.0 0.0 0.00 0.00 0.00 89 1015.8
20260904024804 25 109 0.0 0.0 0.00 0.00 0.00 88 1015.8
20260904024305 25 109 0.0 0.0 0.00 0.00 0.00 88 1015.8
20260904023804 25 109 0.0 0.0 0.00 0.00 0.00 88 1015.8
20260904023304 25 109 0.0 0.0 0.00 0.00 0.00 88 1015.8
20260904022804 25 109 0.0 0.0 0.00 0.00 0.00 88 1015.8
20260904021304 25 109 0.0 0.0 0.00 0.00 0.00 89 1015.8
20260904020804 25 109 0.0 0.0 0.00 0.00 0.00 89 1015.8
20260904020305 25 109 0.0 0.0 0.00 0.00 0.00 89 1015.8
20260904015804 25 109 0.0 0.0 0.00 0.00 0.00 88 1015.8
20260904015306 25 109 0.0 0.0 0.00 0.00 0.00 89 1015.9
20260904014804 25 108 0.0 0.0 0.00 0.00 0.00 89 1015.9
20260904014304 25 108 0.0 0.0 0.00 0.00 0.00 89 1015.9
20260904013805 25 108 0.0 0.0 0.00 0.00 0.00 89 1016.0
20260904012306 25 108 0.0 0.0 0.00 0.00 0.00 89 1016.0
20260904011804 25 109 0.0 0.0 0.00 0.00 0.00 89 1016.0
20260904011304 25 108 0.0 0.0 0.00 0.00 0.00 89 1016.1
20260904010804 25 108 0.0 0.0 0.00 0.00 0.00 89 1016.2
20260904010304 25 108 0.0 0.0 0.00 0.00 0.00 89 1016.3
20260904005804 25 108 0.0 0.0 0.00 0.00 0.00 89 1016.3
20260904005306 25 108 0.0 0.0 0.00 0.00 0.00 89 1016.4
20260904004804 25 108 0.0 0.0 0.00 0.00 0.00 89 1016.4
20260904004304 25 108 0.0 0.0 0.00 0.00 0.00 89 1016.5
20260904003804 25 108 0.0 0.0 0.00 0.00 0.00 89 1016.5
20260904003304 25 108 0.0 0.0 0.00 0.00 0.00 90 1016.5
20260904002804 25 108 0.0 0.0 0.00 0.00 0.00 90 1016.5
20260904002306 25 108 0.0 0.0 0.00 0.00 0.00 90 1016.5
20260904001804 25 108 0.0 0.0 0.00 0.00 0.00 90 1016.6
20260904001304 25 108 0.0 0.0 0.00 0.00 0.00 90 1016.6
20260904000804 25 108 0.0 0.0 0.00 0.00 0.00 90 1016.6
20260904000304 25 108 0.0 0.0 0.00 0.00 0.00 90 1016.6
20260903235305 25 108 0.0 0.0 0.00 0.00 0.00 90 1016.6
20260903234805 25 108 0.0 0.0 0.00 0.00 0.00 90 1016.7
20260903233804 26 108 0.0 0.0 0.00 0.00 0.00 89 1016.8
20260903232804 26 108 0.0 0.0 0.00 0.00 0.00 89 1016.9
20260903232306 26 108 0.0 0.0 0.00 0.00 0.00 89 1016.8
20260903231804 26 108 0.0 0.0 0.00 0.00 0.00 89 1016.9
20260903231304 26 108 0.0 0.0 0.00 0.00 0.00 89 1016.9
20260903230304 26 108 0.0 0.0 0.00 0.00 0.00 89 1016.9
20260903225306 26 108 0.0 0.0 0.00 0.00 0.00 89 1016.9
20260903224804 26 108 0.0 0.0 0.00 0.00 0.00 89 1016.9
20260903223804 26 108 0.0 0.0 0.00 0.00 0.00 88 1016.9
20260903223304 26 108 0.0 0.0 0.00 0.00 0.00 89 1016.8
20260903222306 26 108 0.0 0.0 0.00 0.00 0.00 88 1016.9
20260903221804 26 108 0.0 0.0 0.00 0.00 0.00 88 1017.0
20260903221304 27 108 0.0 0.0 0.00 0.00 0.00 88 1017.1
20260903220816 27 108 0.0 0.0 0.00 0.00 0.00 88 1017.1
20260903220305 27 108 0.0 0.0 0.00 0.00 0.00 88 1017.2
20260903215804 27 108 0.0 0.0 0.00 0.00 0.00 88 1017.2
20260903215306 27 108 0.0 0.0 0.00 0.00 0.00 88 1017.2
20260903214804 27 108 0.0 0.0 0.00 0.00 0.00 88 1017.2
20260903214304 27 108 0.0 0.0 0.00 0.00 0.00 88 1017.2
20260903213804 27 108 0.0 0.0 0.00 0.00 0.00 87 1017.1
20260903213304 27 108 0.0 0.0 0.00 0.00 0.00 87 1017.2
20260903212804 27 108 0.0 0.0 0.00 0.00 0.00 87 1017.2
20260903212306 27 108 0.0 1.6 0.00 0.00 0.00 87 1017.2
20260903211804 27 108 0.0 1.6 0.00 0.00 0.00 87 1017.2
20260903211304 27 109 0.0 0.0 0.00 0.00 0.00 87 1017.3
20260903210804 27 108 0.0 0.0 0.00 0.00 0.00 86 1017.2
20260903205804 27 108 0.0 0.0 0.00 0.00 0.00 86 1017.1
20260903205306 27 109 0.0 0.0 0.00 0.00 0.00 86 1017.2
20260903204804 27 108 0.0 0.0 0.00 0.00 0.00 86 1017.1
20260903204304 27 108 0.0 0.0 0.00 0.00 0.00 86 1017.1
20260903203804 27 108 0.0 0.0 0.00 0.00 0.00 85 1017.1
20260903203304 27 108 0.0 0.0 0.00 0.00 0.00 85 1017.0
20260903202803 27 108 0.0 0.0 0.00 0.00 0.00 85 1017.0
20260903202306 27 108 0.0 0.0 0.00 0.00 0.00 85 1016.9
20260903201804 27 108 0.0 0.0 0.00 0.00 0.00 85 1016.9
20260903201304 27 121 0.0 0.0 0.00 0.00 0.00 85 1016.8
20260903200304 27 121 0.0 1.6 0.00 0.00 0.00 85 1016.7
20260903195804 27 121 0.0 0.0 0.00 0.00 0.00 85 1016.7
20260903195306 27 121 0.0 0.0 0.00 0.00 0.00 85 1016.7
20260903194804 27 121 0.0 0.0 0.00 0.00 0.00 84 1016.6
20260903194304 27 121 0.0 1.6 0.00 0.00 0.00 84 1016.5
20260903193804 27 121 0.0 1.6 0.00 0.00 0.00 84 1016.4
20260903193303 27 121 0.0 1.6 0.00 0.00 0.00 84 1016.4
20260903192804 27 121 0.0 1.6 0.00 0.00 0.00 84 1016.3
20260903192306 27 121 0.0 3.2 0.00 0.00 0.00 84 1016.2
20260903191803 27 121 0.0 0.0 0.00 0.00 0.00 84 1016.1
20260903191304 27 121 0.0 3.2 0.00 0.00 0.00 84 1016.0
20260903190303 28 121 0.0 0.0 0.00 0.00 0.00 83 1015.9
20260903185804 28 121 0.0 1.6 0.00 0.00 0.00 83 1015.8
20260903185306 28 121 0.0 3.2 0.00 0.00 0.00 83 1015.7
20260903184804 28 118 0.0 3.2 0.00 0.00 0.00 83 1015.6
20260903183304 28 146 0.0 1.6 0.00 0.00 0.00 82 1015.5
20260903182803 28 146 1.6 4.8 0.00 0.00 0.00 82 1015.4
20260903182306 28 132 1.6 9.7 0.00 0.00 0.00 82 1015.4
20260903181804 28 111 0.0 4.8 0.00 0.00 0.00 82 1015.5
20260903181304 28 135 1.6 4.8 0.00 0.00 0.00 81 1015.4
20260903180803 28 141 1.6 4.8 0.00 0.00 0.00 81 1015.4
20260903175804 28 128 0.0 8.0 0.00 0.00 0.00 80 1015.4
20260903175306 28 134 0.0 8.0 0.00 0.00 0.00 79 1015.4
20260903174803 28 142 1.6 8.0 0.00 0.00 0.00 78 1015.4
20260903174304 29 126 1.6 8.0 0.00 0.00 0.00 78 1015.4
20260903173804 29 146 3.2 8.0 0.00 0.00 0.00 77 1015.4
20260903173304 29 142 1.6 4.8 0.00 0.00 0.00 77 1015.3
20260903172805 29 113 1.6 11.3 0.00 0.00 0.00 76 1015.3
20260903172306 29 132 1.6 9.7 0.00 0.00 0.00 76 1015.2
20260903171804 29 159 1.6 8.0 0.00 0.00 0.00 76 1015.2
20260903170804 29 121 1.6 9.7 0.00 0.00 0.00 75 1015.2
20260903170305 30 102 3.2 11.3 0.00 0.00 0.00 74 1015.2
20260903165805 30 128 1.6 8.0 0.00 0.00 0.00 74 1015.2
20260903165306 30 134 0.0 4.8 0.00 0.00 0.00 74 1015.2
20260903164805 30 128 1.6 8.0 0.00 0.00 0.00 73 1015.2
20260903163805 30 124 3.2 12.9 0.00 0.00 0.00 71 1015.3
20260903162805 31 132 1.6 9.7 0.00 0.00 0.00 69 1015.2
20260903162306 31 148 3.2 8.0 0.00 0.00 0.00 67 1015.2
20260903161805 31 127 1.6 11.3 0.00 0.00 0.00 66 1015.1
20260903161305 31 137 1.6 4.8 0.00 0.00 0.00 65 1015.2
20260903160805 31 148 3.2 9.7 0.00 0.00 0.00 64 1015.2
20260903160304 31 117 1.6 8.0 0.00 0.00 0.00 65 1015.1
20260903155805 31 135 3.2 11.3 0.00 0.00 0.00 64 1015.1
20260903155306 31 134 3.2 11.3 0.00 0.00 0.00 63 1015.2
20260903154805 31 127 3.2 9.7 0.00 0.00 0.00 62 1015.3
20260903154305 31 134 3.2 11.3 0.00 0.00 0.00 62 1015.3
20260903153805 31 133 1.6 9.7 0.00 0.00 0.00 63 1015.3
20260903153305 31 112 3.2 9.7 0.00 0.00 0.00 62 1015.4
20260903152805 32 136 1.6 12.9 0.00 0.00 0.00 62 1015.5
20260903151804 32 130 1.6 11.3 0.00 0.00 0.00 60 1015.5
20260903151305 32 133 1.6 8.0 0.00 0.00 0.00 61 1015.6
20260903150805 31 142 1.6 9.7 0.00 0.00 0.00 64 1015.6
20260903145805 32 123 4.8 11.3 0.00 0.00 0.00 63 1015.6
20260903145306 32 146 1.6 11.3 0.00 0.00 0.00 64 1015.7
20260903144305 32 143 4.8 9.7 0.00 0.00 0.00 60 1015.8
20260903143805 32 145 4.8 9.7 0.00 0.00 0.00 59 1015.8
20260903142805 32 120 1.6 11.3 0.00 0.00 0.00 61 1016.0
20260903142306 32 159 1.6 11.3 0.00 0.00 0.00 61 1016.0
20260903141804 32 127 3.2 11.3 0.00 0.00 0.00 60 1016.0
20260903141304 32 131 3.2 9.7 0.00 0.00 0.00 59 1016.1
20260903140805 32 146 3.2 8.0 0.00 0.00 0.00 59 1016.1
20260903140305 32 124 4.8 9.7 0.00 0.00 0.00 56 1016.2
20260903135804 33 119 4.8 12.9 0.00 0.00 0.00 54 1016.2
20260903134804 33 134 3.2 9.7 0.00 0.00 0.00 53 1016.2
20260903134304 33 142 3.2 9.7 0.00 0.00 0.00 51 1016.2
20260903133805 33 118 1.6 9.7 0.00 0.00 0.00 54 1016.2